[[{"header":{"parameterUnit":"m.s-1","parameterCategory":1,"la1":30.2991,"la2":30.254,"lo1":-89.0895,"lo2":-89.0444,"dy":0.0017,"dx":0.0017,"nx":28,"ny":28,"refTime":"2024-04-29T21:00:00:Z","depth":0,"parameterNumber":2,"parameterNumberName":"U-component_of_WINDS"},"data":[0,0,0,0,0,0,0,0,0,0,0,0,0,0,0,0,0,0,0,0,0,0,0,0,0,0,0,0,0,0,0,0,0,0,0,0,0,0,0,0,0,0,0,0,0,0,0,0,0,0,0,0,0,0,0,0,0,0,-0.9068,-0.907,0,-0.9204,-0.9205,-0.9207,-0.9279,-0.928,-0.928,-0.928,-0.9418,-0.9421,-0.9425,0,0,0,0,0,0,0,0,0,0,0,0,0,-0.8871,-0.8874,-0.9068,-0.907,-0.9071,-0.9204,-0.9205,-0.9207,-0.9279,-0.928,-0.928,-0.928,-0.9417,-0.9421,-0.9425,0,0,0,0,0,0,0,0,0,0,0,0,0,-0.8976,-0.8875,-0.9068,-0.9123,-0.913,-0.9203,-0.9206,-0.9208,-0.9279,-0.928,-0.928,-0.928,-0.9415,-0.942,-0.9426,-0.9454,0,0,-0.9442,-0.9444,0,0,0,0,0,0,0,0,-0.897,-0.8983,-0.9113,-0.912,-0.9127,-0.9225,-0.9187,-0.929,-0.9279,-0.9222,-0.928,-0.928,-0.9353,-0.9364,-0.9389,-0.946,-0.9466,-0.9442,-0.9446,-0.9448,-0.9449,0,0,0,0,0,0,0,-0.8963,-0.8978,-0.9122,-0.9115,-0.9123,-0.9141,-0.9157,-0.9207,-0.9285,-0.9227,-0.9233,-0.9248,-0.9357,-0.9383,-0.9393,-0.9468,-0.9442,-0.9447,-0.945,-0.9452,-0.9571,-0.9571,0,0,0,0,0,0,-0.8947,-0.8971,-0.9117,-0.9126,-0.9048,-0.9145,-0.9162,-0.9193,-0.9285,-0.9299,-0.9248,-0.9251,-0.9374,-0.9386,-0.9398,-0.9438,-0.9448,-0.9453,-0.9456,-0.9571,-0.9571,-0.9571,0,0,0,0,0,0,-0.8942,-0.8959,-0.9112,-0.905,-0.9071,-0.9148,-0.9183,-0.9196,-0.9222,-0.93,-0.9314,-0.926,-0.9375,-0.939,-0.944,-0.9443,-0.9455,-0.946,-0.9571,-0.9571,-0.9571,-0.9517,0,0,0,0,0,0,-0.8936,-0.8957,-0.8969,-0.905,-0.9074,-0.9152,-0.9183,-0.9198,-0.9231,-0.9237,-0.9316,-0.9329,-0.9376,-0.9431,-0.9445,-0.9451,-0.9464,-0.9571,-0.9571,-0.9571,-0.9518,-0.9515,-0.9512,0,0,0,0,0,-0.8929,-0.8947,-0.8969,-0.8986,-0.909,-0.9152,-0.9166,-0.922,-0.9231,-0.9244,-0.9294,-0.9326,-0.9441,-0.9436,-0.9452,-0.9459,-0.9571,-0.9571,-0.9571,-0.952,-0.9515,-0.9512,0,0,0,0,0,0,-0.8864,-0.8959,-0.8984,-0.9029,-0.9082,-0.9164,-0.9181,-0.9213,-0.9263,-0.9266,-0.9332,-0.9349,-0.9392,-0.9431,-0.9424,-0.9492,-0.9509,-0.9512,-0.9465,-0.9461,-0.9458,-0.9448,-0.9469,0,0,0,0,0,-0.8855,-0.8897,-0.8978,-0.901,-0.9035,-0.9103,-0.9132,-0.917,-0.9227,-0.9249,-0.9303,-0.9357,-0.9405,-0.9435,-0.9484,-0.9524,-0.9543,-0.9537,-0.9534,-0.9531,-0.9533,-0.9558,-0.9556,-0.9571,-0.9571,-0.9571,0,0,-0.8836,-0.8894,-0.8916,-0.8999,-0.9044,-0.9086,-0.9122,-0.9165,-0.9197,-0.9256,-0.9306,-0.9347,-0.9412,-0.9457,-0.948,-0.949,-0.9533,-0.9531,-0.9527,-0.9531,-0.9557,-0.9556,-0.9554,-0.9571,-0.9571,-0.9571,0,0,-0.8825,-0.8872,-0.8905,-0.895,-0.9018,-0.9063,-0.9071,-0.9148,-0.9178,-0.923,-0.9275,-0.9314,-0.9395,-0.944,-0.9473,-0.9478,-0.9511,-0.9492,-0.9474,-0.9498,-0.9497,-0.9496,-0.9498,-0.9498,-0.9494,-0.9494,-0.9494,0,-0.8793,-0.8859,-0.8917,-0.8958,-0.8993,-0.9049,-0.9082,-0.9123,-0.9203,-0.9226,-0.9237,-0.9341,-0.9388,-0.9445,-0.9446,-0.9471,-0.9482,-0.9484,-0.9492,-0.9492,-0.9492,-0.9495,-0.9496,-0.9491,-0.9492,-0.9492,-0.9492,0,-0.8817,-0.8862,-0.888,-0.8957,-0.8994,-0.9031,-0.9094,-0.9125,-0.9159,-0.9203,-0.9255,-0.9314,-0.9376,-0.9392,-0.9425,-0.9454,-0.9458,-0.948,-0.9499,-0.9487,-0.9491,-0.9493,-0.9488,-0.9489,-0.9489,-0.949,0,0,-0.8768,-0.8877,-0.8883,-0.8919,-0.8998,-0.9034,-0.9073,-0.9134,-0.9159,-0.9213,-0.9248,-0.9316,-0.9336,-0.9374,-0.9413,-0.9434,-0.9435,-0.9453,-0.9456,-0.9448,-0.947,-0.9453,-0.9454,-0.9457,-0.9457,-0.9458,-0.9465,0,-0.8768,-0.8842,-0.8896,-0.8949,-0.8991,-0.9045,-0.908,-0.9132,-0.9174,-0.9216,-0.9263,-0.931,-0.9334,-0.9357,-0.938,-0.943,-0.944,-0.943,-0.949,-0.9491,-0.9472,-0.9456,-0.9438,-0.9442,-0.9467,-0.9467,-0.9467,0,-0.8778,-0.883,-0.8887,-0.8963,-0.8983,-0.9013,-0.9074,-0.9113,-0.9174,-0.9203,-0.9245,-0.9286,-0.933,-0.9345,-0.9406,-0.9398,-0.9426,-0.9454,-0.9456,-0.9463,-0.9478,-0.9463,-0.9445,-0.9445,-0.947,-0.947,-0.947,0,-0.8737,-0.8821,-0.8867,-0.8896,-0.8985,-0.9005,-0.9043,-0.9105,-0.9138,-0.9191,-0.9213,-0.927,-0.9301,-0.9344,-0.9399,-0.9404,-0.9455,-0.9474,-0.9481,-0.9479,-0.9489,-0.9488,-0.9475,-0.9506,-0.9506,-0.9506,-0.9506,0,-0.8731,-0.8764,-0.885,-0.8878,-0.8917,-0.8978,-0.9015,-0.9057,-0.9111,-0.9148,-0.9198,-0.9232,-0.9303,-0.9345,-0.9388,-0.9433,-0.9446,-0.9471,-0.9482,-0.9467,-0.9464,-0.9486,-0.9487,-0.9506,-0.9506,-0.9506,-0.9506,0,-0.8692,-0.875,-0.8804,-0.8884,-0.8905,-0.893,-0.8999,-0.9028,-0.9074,-0.912,-0.9135,-0.9205,-0.9258,-0.9317,-0.9389,-0.9418,-0.946,-0.9476,-0.9439,-0.9446,-0.9449,-0.9448,-0.945,-0.9453,-0.9482,-0.9481,-0.9481,0,-0.8684,-0.8711,-0.8795,-0.8824,-0.886,-0.8906,-0.8941,-0.9002,-0.9036,-0.9108,-0.9128,-0.9184,-0.9233,-0.9314,-0.9372,-0.9427,-0.9445,-0.9442,-0.9454,-0.9438,-0.9446,-0.9443,-0.9447,-0.9439,-0.9438,-0.9438,-0.9437,0,-0.8665,-0.8693,-0.8741,-0.8799,-0.8839,-0.8888,-0.8939,-0.8959,-0.9031,-0.9067,-0.9121,-0.9159,-0.9233,-0.9288,-0.9351,-0.939,-0.9425,-0.9433,-0.9438,-0.9422,-0.94,-0.9412,-0.943,-0.9433,-0.9433,-0.9433,-0.9434,-0.9434,-0.8642,-0.8669,-0.8732,-0.8784,-0.8829,-0.8875,-0.8907,-0.8956,-0.9003,-0.9068,-0.9101,-0.9155,-0.9216,-0.9304,-0.9342,-0.9386,-0.9397,-0.9403,-0.9405,-0.9406,-0.9402,-0.9393,-0.9397,-0.9397,-0.9398,-0.9398,-0.9398,0,-0.8626,-0.8669,-0.8716,-0.8786,-0.8827,-0.8858,-0.8915,-0.8947,-0.8995,-0.9048,-0.9095,-0.9158,-0.9212,-0.9274,-0.9332,-0.9355,-0.9373,-0.9368,-0.9367,-0.9376,-0.9388,-0.9378,-0.9353,-0.9353,-0.9353,-0.9353,-0.9353,-0.9353,-0.8622,-0.8669,-0.8704,-0.8774,-0.8817,-0.8871,-0.8902,-0.8945,-0.8988,-0.9056,-0.9102,-0.9142,-0.9199,-0.9262,-0.9313,-0.933,-0.9349,-0.934,-0.9361,-0.9371,-0.9375,-0.9379,-0.937,-0.9343,-0.9343,-0.9346,-0.9346,-0.9346]},{"header":{"parameterUnit":"m.s-1","parameterCategory":1,"la1":30.2991,"la2":30.254,"lo1":-89.0895,"lo2":-89.0444,"dy":0.0017,"dx":0.0017,"nx":28,"ny":28,"refTime":"2024-04-29T21:00:00:Z","depth":0,"parameterNumber":3,"parameterNumberName":"V-component_of_WINDS"},"data":[0,0,0,0,0,0,0,0,0,0,0,0,0,0,0,0,0,0,0,0,0,0,0,0,0,0,0,0,0,0,0,0,0,0,0,0,0,0,0,0,0,0,0,0,0,0,0,0,0,0,0,0,0,0,0,0,0,0,4.1964,4.1965,0,4.2033,4.2033,4.2034,4.204,4.2039,4.2038,4.2038,4.21,4.2102,4.2104,0,0,0,0,0,0,0,0,0,0,0,0,0,4.1832,4.1835,4.1964,4.1965,4.1966,4.2033,4.2033,4.2034,4.204,4.2039,4.2038,4.2037,4.2099,4.2102,4.2105,0,0,0,0,0,0,0,0,0,0,0,0,0,4.1894,4.1835,4.1964,4.1977,4.1979,4.2032,4.2034,4.2035,4.204,4.2039,4.2038,4.2037,4.2098,4.2102,4.2105,4.2148,0,0,4.2116,4.2117,0,0,0,0,0,0,0,0,4.189,4.1898,4.1974,4.1976,4.1978,4.2027,4.201,4.2072,4.204,4.2017,4.2038,4.2036,4.2076,4.2081,4.2096,4.2151,4.2154,4.2116,4.2118,4.212,4.2121,0,0,0,0,0,0,0,4.1886,4.1896,4.1991,4.1975,4.1978,4.1977,4.1985,4.2022,4.2051,4.2019,4.2019,4.2028,4.2077,4.2093,4.2098,4.2155,4.2116,4.2119,4.2121,4.2123,4.2249,4.2251,0,0,0,0,0,0,4.188,4.1892,4.1989,4.1993,4.1931,4.1981,4.1989,4.2012,4.2051,4.2056,4.2028,4.2028,4.2087,4.2093,4.21,4.2154,4.212,4.2123,4.2125,4.2248,4.225,4.2251,0,0,0,0,0,0,4.1877,4.1889,4.1986,4.1943,4.1955,4.1984,4.201,4.2014,4.203,4.2058,4.2063,4.204,4.2087,4.2095,4.2137,4.2156,4.2124,4.2128,4.2247,4.2249,4.225,4.2261,0,0,0,0,0,0,4.1874,4.1888,4.1906,4.1943,4.1958,4.2024,4.2011,4.2016,4.2037,4.2037,4.207,4.2075,4.2086,4.2132,4.214,4.216,4.213,4.2245,4.2248,4.225,4.2259,4.2263,4.2267,0,0,0,0,0,4.1869,4.1904,4.1907,4.1918,4.1981,4.2025,4.2033,4.2048,4.2039,4.2056,4.2075,4.2074,4.2153,4.2136,4.2146,4.2167,4.2244,4.2247,4.225,4.2257,4.2262,4.2267,0,0,0,0,0,0,4.1864,4.1909,4.1912,4.1961,4.199,4.2026,4.2048,4.2052,4.2082,4.208,4.2095,4.2103,4.2144,4.216,4.214,4.2211,4.2197,4.2202,4.22,4.2205,4.2208,4.2203,4.2133,0,0,0,0,0,4.1869,4.1904,4.194,4.1979,4.1994,4.2019,4.2038,4.2048,4.2077,4.2088,4.211,4.2136,4.2167,4.2186,4.2216,4.2262,4.2269,4.2281,4.2285,4.2288,4.2292,4.2318,4.2324,4.2261,4.2261,4.2261,0,0,4.1879,4.1908,4.1928,4.1979,4.2002,4.2036,4.2029,4.2064,4.2088,4.2093,4.2135,4.2152,4.2182,4.2226,4.2247,4.224,4.2311,4.2291,4.2294,4.2296,4.2321,4.2327,4.2332,4.2263,4.2262,4.2262,0,0,4.1914,4.194,4.1976,4.2001,4.2038,4.2055,4.2063,4.21,4.2112,4.2155,4.216,4.2188,4.2241,4.2263,4.2281,4.2328,4.2328,4.2337,4.2355,4.2381,4.2386,4.239,4.2407,4.2413,4.234,4.234,4.234,0,4.1921,4.1974,4.1993,4.203,4.2053,4.2062,4.2098,4.212,4.2163,4.2177,4.217,4.2239,4.2259,4.2309,4.2321,4.2335,4.2345,4.2332,4.2384,4.2389,4.2393,4.2409,4.2416,4.2341,4.2341,4.2341,4.2341,0,4.1981,4.2018,4.2043,4.2089,4.2113,4.2149,4.2173,4.2195,4.2204,4.2221,4.2265,4.229,4.2327,4.2339,4.2346,4.2391,4.2386,4.2381,4.2367,4.24,4.2415,4.2422,4.2343,4.2342,4.2342,4.2342,0,0,4.2012,4.2072,4.208,4.2102,4.2145,4.2172,4.2209,4.2247,4.2267,4.2296,4.2327,4.2373,4.237,4.239,4.2399,4.2422,4.2458,4.2414,4.2415,4.2422,4.2509,4.2513,4.252,4.2459,4.246,4.2461,4.2507,0,4.2053,4.2121,4.2141,4.2198,4.2232,4.2243,4.2274,4.2303,4.232,4.235,4.2368,4.2401,4.2394,4.2407,4.243,4.2449,4.2476,4.2446,4.2486,4.2487,4.2478,4.2528,4.2531,4.2573,4.2513,4.2514,4.2515,0,4.2108,4.2144,4.2205,4.2246,4.2261,4.2289,4.2327,4.2356,4.2389,4.24,4.2425,4.2433,4.247,4.2455,4.2505,4.2485,4.2502,4.2514,4.2516,4.252,4.2503,4.2533,4.2586,4.2593,4.2525,4.2524,4.2523,0,4.2126,4.2189,4.2234,4.2252,4.23,4.232,4.2341,4.2373,4.2395,4.2427,4.2442,4.2477,4.2496,4.2522,4.2539,4.2526,4.2588,4.2574,4.2597,4.2597,4.2609,4.2608,4.2666,4.2621,4.2621,4.2621,4.262,0,4.2169,4.2206,4.2243,4.2271,4.2313,4.2335,4.2375,4.2395,4.2424,4.2454,4.2464,4.2492,4.2513,4.2544,4.2557,4.2597,4.2605,4.2614,4.2617,4.2613,4.2612,4.2624,4.2622,4.2622,4.2622,4.2622,4.2621,0,4.2195,4.2222,4.2272,4.2315,4.2327,4.2356,4.2391,4.2418,4.2437,4.2476,4.2486,4.2514,4.2551,4.2571,4.2616,4.2625,4.267,4.2671,4.266,4.2661,4.2683,4.2681,4.2751,4.2761,4.2709,4.271,4.271,0,4.222,4.225,4.2297,4.2321,4.2343,4.2379,4.2403,4.2426,4.245,4.2491,4.2513,4.2551,4.2582,4.264,4.2663,4.2698,4.27,4.2723,4.2705,4.2701,4.2701,4.2699,4.2702,4.2725,4.2725,4.2726,4.2726,0,4.2262,4.2275,4.2311,4.2353,4.2383,4.2416,4.2448,4.2466,4.2494,4.252,4.256,4.2585,4.2633,4.267,4.2708,4.2726,4.273,4.2732,4.2739,4.2735,4.2728,4.2732,4.2668,4.273,4.2729,4.2729,4.2729,4.2729,4.2289,4.2316,4.2355,4.2396,4.2424,4.2455,4.2483,4.2507,4.2541,4.2585,4.2595,4.2637,4.2669,4.272,4.274,4.2772,4.2767,4.2777,4.278,4.2782,4.2783,4.2724,4.2778,4.2778,4.2778,4.2778,4.2778,0,4.2332,4.2359,4.2396,4.2443,4.2475,4.2481,4.2518,4.2543,4.2581,4.2612,4.2645,4.2691,4.2728,4.2755,4.2793,4.2812,4.2815,4.2821,4.282,4.2824,4.2785,4.2775,4.2819,4.2819,4.2819,4.2819,4.2819,4.2818,4.2358,4.2406,4.2423,4.2484,4.251,4.2554,4.2574,4.2602,4.2628,4.268,4.2713,4.2732,4.2762,4.2802,4.2835,4.2842,4.2855,4.2861,4.2868,4.2831,4.2827,4.2823,4.2814,4.2864,4.2864,4.2905,4.2905,4.2906]}]]